Rechercher aéroport 
image banner adimage banner adimage banner ad
image banner ad

7CA8 - Eisenhower Medical Center

Situé à Rancho Mirage, United States

ICAO - 7CA8, IATA -

Données fournies par Airmate  

Information générale

Coordonnées: N33°45'51" W116°24'18"
Élévation : 234 feet MSL.
Variation magnétique : 13° East
Voir autres Aéroports à California

Données opérationnelles

Special qualification required
Heure actuelle UTC:
Heure actuelle locale:
Météo à : KPSP - Palm Springs Intl ( 12 km )
METAR: KPSP 270453Z 31009KT 10SM CLR 32/20 A2989 RMK AO2 SLP117 T03170200
TAF: KPSP 262335Z 2700/2724 12009KT P6SM VCTS BKN090CB FM270300 32009KT P6SM FEW250 FM270800 VRB04KT P6SM SKC FM272100 10007KT P6SM BKN100
Voir NOTAMs / SUP AIP / TFR affectant cet aéroport [VIEW]
Fréquences de communication: [VIEW]

Pistes:

Coordonnées de l'aéroport

Adresse: Rancho Mirage United States

Vue satellite de 7CA8